Date String (YYYY-MM-DD hh:mm:ss) UTC,Instrument flags,absolute air pressure of the measurement (hPa),sample flow rate (lpm),inlet stack bypass flow (lpm),air temperature of the measurement (°C),ambient temperature measured by the external sensor (°C),aerosol sample conditioner tube jacket temperature (°C),OPC LED temperature (°C),internal box temperature (°C),relative humidity of the measurement (%),span deviation,mass concentration of particles derived from Lorenz-Mie calculation of OPC scattering (μg/m³),mass concentration of particles derived from Lorenz-Mie calculation of OPC scattering (μg/m³),mass concentration of particles derived from Lorenz-Mie calculation of OPC scattering (μg/m³)
DateTimeUTC,F1_M11,P_M11,Q1_M11,Q2_M11,T1_M11,T2_M11,T3_M11,T4_M11,T5_M11,U1_M11,ZSPAN_M11,X0_M11,X2_M11,X1_M11
2023-10-13 14:00:00,SystemResetWarning,0831.7,5.00,000.00,023.1,021.8,000.0,031.5,024.9,17.1,0000.0,0002.56,0001.53,0001.31
2023-10-13 14:01:00,SystemResetWarning,0831.8,5.00,000.00,023.2,021.8,000.0,031.5,024.9,17.1,0000.0,0002.73,0001.62,0001.35
2023-10-13 14:02:00,SystemResetWarning,0832.0,5.00,000.00,023.2,021.9,000.0,031.6,024.9,17.1,0000.0,0002.87,0001.72,0001.44
2023-10-13 14:03:00,SystemResetWarning,0832.3,5.00,000.00,023.2,021.9,000.0,031.6,024.9,17.1,0000.0,0003.00,0001.81,0001.51
2023-10-13 14:04:00,SystemResetWarning,0832.3,5.00,000.00,023.2,021.9,000.0,031.6,025.0,17.2,0000.0,0003.10,0001.89,0001.56
2023-10-13 14:05:00,SystemResetWarning,0831.9,5.00,000.00,023.2,021.9,000.0,031.6,025.0,17.3,0000.0,0003.34,0001.97,0001.63
2023-10-13 14:06:00,SystemResetWarning,0831.8,5.00,000.00,023.2,022.0,000.0,031.6,025.0,17.2,0000.0,0003.49,0002.03,0001.69
2023-10-13 14:07:00,SystemResetWarning,0831.9,5.00,000.00,023.3,022.0,000.0,031.6,025.0,17.3,0000.0,0003.61,0002.11,0001.75
2023-10-13 14:08:00,SystemResetWarning,0831.9,5.01,000.00,023.3,022.0,000.0,031.6,025.0,17.4,0000.0,0003.46,0002.16,0001.79
2023-10-13 14:09:00,SystemResetWarning,0831.9,5.00,000.00,023.3,022.0,000.0,031.6,025.0,17.6,0000.0,0003.23,0002.14,0001.80
2023-10-13 14:10:00,SystemResetWarning,0832.0,5.01,000.00,023.3,022.1,000.0,031.6,025.0,17.7,0000.0,0003.25,0002.15,0001.80
2023-10-13 14:11:00,SystemResetWarning,0832.0,4.99,000.00,023.3,022.1,000.0,031.7,025.0,17.7,0000.0,0003.33,0002.17,0001.79
2023-10-13 14:12:00,SystemResetWarning,0832.0,5.00,000.00,023.3,022.1,000.0,031.7,025.1,17.5,0000.0,0003.32,0002.17,0001.80
2023-10-13 14:13:00,SystemResetWarning,0832.0,4.99,000.00,023.4,022.1,000.0,031.7,025.1,17.5,0000.0,0003.23,0002.14,0001.81
2023-10-13 14:14:00,SystemResetWarning,0832.0,5.01,000.00,023.4,022.1,000.0,031.7,025.1,17.3,0000.0,0003.18,0002.12,0001.80
2023-10-13 14:15:00,SystemResetWarning,0832.0,5.01,000.00,023.4,022.1,000.0,031.7,025.1,17.3,0000.0,0003.19,0002.13,0001.81
2023-10-13 14:16:00,SystemResetWarning,0832.0,5.00,000.00,023.4,022.2,000.0,031.7,025.1,17.3,0000.0,0003.07,0002.13,0001.79
2023-10-13 14:17:00,SystemResetWarning,0832.0,5.00,000.00,023.4,022.2,000.0,031.8,025.1,17.4,0000.0,0002.97,0002.15,0001.79
2023-10-13 14:18:00,SystemResetWarning,0832.0,5.00,000.00,023.4,022.2,000.0,031.8,025.2,17.4,0000.0,0003.86,0002.19,0001.78
2023-10-13 14:19:00,SystemResetWarning,0832.0,5.00,000.00,023.4,022.2,000.0,031.8,025.2,17.6,0000.0,0005.10,0002.20,0001.79
2023-10-13 14:20:00,SystemResetWarning,0832.0,5.00,000.00,023.5,022.3,000.0,031.8,025.2,17.8,0000.0,0005.49,0002.26,0001.81
2023-10-13 14:21:00,SystemResetWarning,0832.0,5.00,000.00,023.5,022.3,000.0,031.8,025.2,17.6,0000.0,0005.72,0002.38,0001.85
2023-10-13 14:22:00,SystemResetWarning,0832.0,4.99,000.00,023.5,022.3,000.0,031.8,025.2,17.4,0000.0,0005.88,0002.44,0001.88
2023-10-13 14:23:00,SystemResetWarning,0832.0,4.99,000.00,023.5,022.3,000.0,031.8,025.2,17.3,0000.0,0005.97,0002.49,0001.92
2023-10-13 14:24:00,SystemResetWarning,0832.1,5.00,000.00,023.5,022.3,000.0,031.9,025.3,17.4,0000.0,0006.06,0002.54,0001.96
2023-10-13 14:25:00,SystemResetWarning,0832.1,5.01,000.00,023.5,022.3,000.0,031.9,025.3,17.1,0000.0,0006.53,0002.61,0002.00
2023-10-13 14:26:00,SystemResetWarning,0832.1,5.00,000.00,023.5,022.3,000.0,031.9,025.3,17.0,0000.0,0007.08,0002.64,0002.03
2023-10-13 14:27:00,SystemResetWarning,0832.1,5.00,000.00,023.5,022.4,000.0,031.9,025.3,17.0,0000.0,0007.11,0002.67,0002.06
2023-10-13 14:28:00,SystemResetWarning,0832.1,5.00,000.00,023.6,022.4,000.0,031.9,025.3,16.9,0000.0,0007.16,0002.69,0002.08
2023-10-13 14:29:00,SystemResetWarning,0832.1,5.00,000.00,023.6,022.4,000.0,031.9,025.3,17.0,0000.0,0007.12,0002.68,0002.09
2023-10-13 14:30:00,SystemResetWarning,0832.1,5.00,000.00,023.6,022.4,000.0,031.9,025.3,17.0,0000.0,0006.35,0002.66,0002.08
2023-10-13 14:31:00,SystemResetWarning,0832.2,5.00,000.00,023.6,022.4,000.0,032.0,025.3,17.0,0000.0,0005.85,0002.63,0002.06
2023-10-13 14:32:00,SystemResetWarning,0832.2,5.00,000.00,023.6,022.4,000.0,032.0,025.3,17.2,0000.0,0005.61,0002.49,0001.99
2023-10-13 14:33:00,SystemResetWarning,0832.2,4.99,000.00,023.6,022.4,000.0,032.0,025.4,17.1,0000.0,0005.45,0002.40,0001.94
2023-10-13 14:34:00,SystemResetWarning,0832.2,4.99,000.00,023.7,022.4,000.0,032.0,025.4,17.2,0000.0,0005.41,0002.34,0001.88
2023-10-13 14:35:00,SystemResetWarning,0832.3,4.99,000.00,023.7,022.4,000.0,032.0,025.4,17.2,0000.0,0005.40,0002.29,0001.81
2023-10-13 14:36:00,SystemResetWarning,0832.3,5.00,000.00,023.7,022.5,000.0,032.0,025.5,17.2,0000.0,0005.27,0002.22,0001.75
2023-10-13 14:37:00,SystemResetWarning,0832.2,5.00,000.00,023.7,022.5,000.0,032.0,025.5,17.1,0000.0,0004.41,0002.18,0001.71
2023-10-13 14:38:00,SystemResetWarning,0832.2,5.00,000.00,023.7,022.5,000.0,032.0,025.5,17.2,0000.0,0004.28,0002.10,0001.66
2023-10-13 14:39:00,SystemResetWarning,0832.2,5.01,000.00,023.7,022.5,000.0,032.1,025.5,17.2,0000.0,0004.15,0002.04,0001.62
2023-10-13 14:40:00,SystemResetWarning,0832.2,5.00,000.00,023.7,022.5,000.0,032.1,025.5,17.3,0000.0,0004.15,0002.00,0001.56
2023-10-13 14:41:00,SystemResetWarning,0832.2,5.00,000.00,023.7,022.5,000.0,032.1,025.5,17.4,0000.0,0003.40,0001.96,0001.50
2023-10-13 14:42:00,SystemResetWarning,0832.3,5.01,000.00,023.7,022.5,000.0,032.1,025.5,17.4,0000.0,0003.45,0001.91,0001.45
2023-10-13 14:43:00,SystemResetWarning,0832.3,4.99,000.00,023.8,022.5,000.0,032.1,025.5,17.3,0000.0,0004.36,0001.95,0001.47
2023-10-13 14:44:00,SystemResetWarning,0832.3,4.99,000.00,023.8,022.5,000.0,032.1,025.5,17.3,0000.0,0004.42,0001.99,0001.49
2023-10-13 14:45:00,SystemResetWarning,0832.3,4.99,000.00,023.8,022.5,000.0,032.1,025.5,17.4,0000.0,0004.30,0001.96,0001.49
2023-10-13 14:46:00,SystemResetWarning,0832.3,5.00,000.00,023.8,022.5,000.0,032.1,025.5,17.8,0000.0,0004.10,0001.89,0001.48
2023-10-13 14:47:00,SystemResetWarning,0832.3,5.01,000.00,023.8,022.5,000.0,032.1,025.5,17.8,0000.0,0004.06,0001.87,0001.44
2023-10-13 14:48:00,SystemResetWarning,0832.3,5.00,000.00,023.8,022.5,000.0,032.2,025.5,17.7,0000.0,0003.94,0001.78,0001.38
2023-10-13 14:49:00,SystemResetWarning,0832.3,5.01,000.00,023.8,022.5,000.0,032.2,025.5,17.4,0000.0,0003.88,0001.72,0001.33
2023-10-13 14:50:00,SystemResetWarning,0832.3,5.00,000.00,023.8,022.5,000.0,032.2,025.5,17.3,0000.0,0003.94,0001.65,0001.28
2023-10-13 14:51:00,SystemResetWarning,0832.3,4.99,000.00,023.8,022.5,000.0,032.2,025.5,17.2,0000.0,0003.94,0001.59,0001.26
2023-10-13 14:52:00,SystemResetWarning,0832.3,5.00,000.00,023.8,022.6,000.0,032.2,025.5,17.3,0000.0,0003.73,0001.53,0001.25
2023-10-13 14:53:00,SystemResetWarning,0832.3,4.99,000.00,023.9,022.6,000.0,032.2,025.6,17.5,0000.0,0003.80,0001.52,0001.26
2023-10-13 14:54:00,SystemResetWarning,0832.3,5.01,000.00,023.9,022.6,000.0,032.2,025.6,17.5,0000.0,0002.75,0001.46,0001.22
2023-10-13 14:55:00,SystemResetWarning,0832.3,5.01,000.00,023.9,022.6,000.0,032.2,025.6,17.2,0000.0,0004.17,0001.41,0001.20
2023-10-13 14:56:00,SystemResetWarning,0832.3,5.01,000.00,023.9,022.6,000.0,032.2,025.6,16.9,0000.0,0004.43,0001.45,0001.21
2023-10-13 14:57:00,SystemResetWarning,0832.4,5.00,000.00,023.9,022.6,000.0,032.3,025.6,17.1,0000.0,0005.39,0001.57,0001.24
2023-10-13 14:58:00,SystemResetWarning,0832.4,5.00,000.00,023.9,022.6,000.0,032.2,025.6,17.4,0000.0,0006.16,0001.64,0001.28
2023-10-13 14:59:00,SystemResetWarning,0832.5,5.00,000.00,023.9,022.6,000.0,032.3,025.6,17.4,0000.0,0006.27,0001.72,0001.33
